Istrana, Italy

2:11 AM CET on March 24, 2017 (GMT +0100)
Istrana Mil

Weather History for LIPS - October, 2013

Change the Weather History Date:

Thursday, October 24, 2013

  Actual Average Record
Temperature  
Mean Temperature 64 °F -  
Max Temperature 68 °F 56 °F 72 °F (2014)
Min Temperature 59 °F 40 °F 39 °F (2003)
Degree Days  
Heating Degree Days 1    
Growing Degree Days 14 (Base 50)    
Moisture  
Dew Point 58 °F    
Average Humidity 83    
Maximum Humidity 88    
Minimum Humidity 67    
Precipitation  
Precipitation 0.00 in 0.12 in - ()
Sea Level Pressure  
Sea Level Pressure 30.12 in    
Wind  
Wind Speed 3 mph ()    
Max Wind Speed 6 mph    
Max Gust Speed -    
Visibility 4.0 miles    
Events Rain    
Averages and records for this station are not official NWS values.
T = Trace of Precipitation, MM = Missing Value Source: Averaged Metar Reports

Daily Weather History Graph

Daily Weather History Graph

Search for Another Location

Airport or City:

Trip Planner

Search our weather history database for the weather conditions in past years. The results will help you decide how hot, cold, wet, or windy it might be!

Date:

Astronomy

Oct. 24, 2013 Rise Set
Actual Time 7:40 AM CEST 6:10 PM CEST
Civil Twilight 7:09 AM CEST 6:40 PM CEST
Nautical Twilight 6:35 AM CEST 7:15 PM CEST
Astronomical Twilight 6:00 AM CEST 7:50 PM CEST
Moon 10:12 PM CEST 12:36 PM CEST
Length of Visible Light 11h 31m
Length of Day
10h 30m
Waning Gibbous, 73% of the Moon is Illuminated
Oct 24
Waning Gibbous
Oct 27
Last Quarter
Nov 3
New
Nov 10
First Quarter
Nov 17
Full

Hourly Weather History & Observations

Time (CEST) Temp. Dew Point Humidity Pressure Visibility Wind Dir Wind Speed Gust Speed Precip Events Conditions
12:55 AM 62.6 °F 59.0 °F 88% 30.06 in - North - - N/A Rain Light Rain
1:55 AM 62.6 °F 59.0 °F 88% 30.06 in - North - - N/A Rain Light Rain
2:00 AM 63 °F 59 °F 84% 30.09 in 1 mi ESE 5.8 mph - - Rain Light Rain
2:55 AM 62.6 °F 59.0 °F 88% 30.06 in - North - - N/A   Mostly Cloudy
3:55 AM 62.6 °F 59.0 °F 88% 30.06 in - North - - N/A   Mostly Cloudy
4:55 AM 62.6 °F 59.0 °F 88% 30.06 in - North - - N/A   Mostly Cloudy
5:00 AM 63 °F 59 °F 81% 30.07 in 2 mi Calm Calm - -   Mist
5:55 AM 62.6 °F 57.2 °F 82% 30.06 in - North - - N/A   Mostly Cloudy
6:55 AM 62.6 °F 57.2 °F 82% 30.06 in - North - - N/A   Mostly Cloudy
7:55 AM 62.6 °F 57.2 °F 82% 30.09 in - North - - N/A   Mostly Cloudy
8:00 AM 62 °F 58 °F 82% 30.11 in 2 mi ENE 5.8 mph - -   Mist
8:55 AM 62.6 °F 57.2 °F 82% 30.12 in - North - - N/A   Mostly Cloudy
9:11 AM 62.6 °F 57.2 °F 82% 30.12 in - North - - N/A   Mostly Cloudy
9:55 AM 62.6 °F 59.0 °F 88% 30.12 in - North - - N/A   Mostly Cloudy
10:30 AM 62.6 °F 59.0 °F 88% 30.12 in - North - - N/A   Mostly Cloudy
10:55 AM 62.6 °F 59.0 °F 88% 30.15 in - North - - N/A   Mostly Cloudy
11:00 AM 63 °F 59 °F 82% 30.16 in 2 mi ENE 5.8 mph - -   Mist
11:55 AM 64.4 °F 59.0 °F 83% 30.15 in - North - - N/A   Mostly Cloudy
12:55 PM 64.4 °F 59.0 °F 83% 30.15 in - North - - N/A   Light Drizzle
1:55 PM 66.2 °F 60.8 °F 83% 30.15 in - North - - N/A   Mostly Cloudy
2:00 PM 65 °F 60 °F 81% 30.16 in 4 mi NE 4.6 mph - - Rain Light Freezing Drizzle
2:55 PM 66.2 °F 59.0 °F 78% 30.12 in - North - - N/A   Scattered Clouds
3:55 PM 68.0 °F 59.0 °F 73% 30.12 in - North - - N/A   Scattered Clouds
4:55 PM 68.0 °F 59.0 °F 73% 30.12 in - North - - N/A   Scattered Clouds
5:00 PM 68 °F 60 °F 67% 30.13 in 7 mi ENE 5.8 mph - -   Scattered Clouds
5:55 PM 64.4 °F 59.0 °F 83% 30.12 in - North - - N/A   Scattered Clouds
6:55 PM 62.6 °F 57.2 °F 82% 30.15 in 6.2 mi Calm Calm - N/A   Scattered Clouds
7:55 PM 60.8 °F 57.2 °F 88% 30.15 in - North - - N/A   Scattered Clouds
8:00 PM 61 °F 57 °F 83% 30.17 in 6 mi Calm Calm - -   Partly Cloudy
8:55 PM 62.6 °F 57.2 °F 82% 30.18 in - North - - N/A   Mostly Cloudy
9:55 PM 62.6 °F 57.2 °F 82% 30.18 in - North - - N/A   Mostly Cloudy
10:55 PM 60.8 °F 57.2 °F 88% 30.18 in - North - - N/A   Partly Cloudy
11:00 PM 61 °F 57 °F 82% 30.18 in 6 mi NNE 2.3 mph - -   Scattered Clouds
11:55 PM 59.0 °F 55.4 °F 88% 30.18 in - North - - N/A   Mostly Cloudy